sat.trackr.live / text

‹ back to catalog

STARLINK-32314

NORAD 61709 · 2024-196C

PAYLOAD ACTIVE UNKNOWN

§ Identity

Operator
Country
US
Launch date
2024-10-30
Launch site
AFETR
Launch vehicle
Mass (kg)
RCS (m²)

Purposes: comms

External: N2YO · Heavens-Above · Gunter

§ Orbital elements

Epoch: 2026-09-21T16:57:54.014688Z

Period
93.85 min
Inclination
53.1587°
Eccentricity
0.0001305
Mean motion
15.34391431 rev/d
Perigee alt
461.8 km
Apogee alt
463.6 km
Semi-major
6,840.9 km
B*
2.3344e-5
RAAN
268.3130°
Arg perigee
83.6054°
Mean anomaly
276.5097°
Rev number
10,720

§ Raw data

STARLINK-323141 61709U 24196C   26264.70687517  .00000412  00000+0  23344-4 0  99922 61709  53.1587 268.3130 0001305  83.6054 276.5097 15.34391431107202

JSON: /api/v1/satellites/61709 · /tle

For live sub-satellite position, see the globe view (requires WebGL).

§ Visibility from observer

Set your observer location to see the next 7 days of passes ≥ 10°. The values pass through the URL so the page stays shareable.

No JS? Fill the form by hand. The geolocation button needs JavaScript.